#timestamp,LO_Frequency,Hit,StdDev 
1504911615.6,286047001.8,P,0.4
1504911635.4,286047001.6,P,0.3
1504911655.3,286047004.3,Y,0.0
1504911675.1,286046999.8,P,0.9
1504911676.0,286046999.8,N,0.8
1504911695.8,286047002.2,N,1.1
1504911715.7,286047001.6,N,1.0
1504911735.5,286047004.4,Y,0.0
1504911755.4,286047002.0,P,0.5
1504911775.2,286047001.4,N,0.4
1504911795.0,286047001.9,P,0.4
1504911795.9,286047001.9,Y,0.0
1504911815.8,286046999.9,P,0.8
1504911835.6,286047000.0,N,0.8
1504911855.5,286047000.4,N,0.7
1504911875.3,286046999.9,N,0.6
1504911895.1,286047002.3,Y,0.0
1504911915.9,286047001.1,P,0.4
1504911935.7,286047000.8,N,0.3
1504911955.5,286047000.5,N,0.3
1504911975.4,286047000.4,N,0.3
1504911995.2,286047000.7,N,0.3
1504912015.1,286047002.3,Y,0.0
1504912016.0,286047002.3,P,0.8
1504912035.8,286047002.4,N,0.8
1504912055.6,286047002.8,P,0.8
1504912075.5,286047002.2,N,0.7
1504912095.3,286047000.2,N,1.0
1504912115.2,286046999.9,N,1.1
1504912135.9,286047002.4,N,1.1
1504912155.7,286047001.9,N,1.0
1504912175.6,286047004.2,Y,0.0
1504912195.4,286047000.2,P,0.7
1504912215.3,286047000.1,N,0.7
1504912235.1,286047000.4,N,0.6
1504912236.0,286047000.4,N,0.6
1504912255.8,286047000.6,N,0.5
1504912275.7,286047000.7,N,0.5
1504912295.5,286047000.4,N,0.4
1504912315.4,286047001.0,N,0.4
1504912335.2,286047000.5,N,0.4
1504912355.0,286047000.2,N,0.4
1504912355.9,286047000.2,N,0.4
1504912375.8,286046999.8,N,0.4
1504912395.6,286047002.3,Y,0.0
1504912415.5,286047002.8,P,1.2
1504912435.3,286047000.0,N,1.2
1504912455.1,286047001.0,N,1.1
1504912475.9,286046998.1,N,1.5
1504912495.7,286047000.7,N,1.4
1504912515.6,286047001.1,N,1.3
1504912535.4,286047001.0,N,1.2
1504912555.2,286047002.4,N,1.3
1504912575.1,286047001.0,N,1.2
1504912576.0,286047001.0,N,1.2
1504912595.8,286047000.1,N,1.1
1504912615.7,286046999.7,N,1.1
1504912635.5,286047002.5,N,1.2
1504912655.3,286047002.8,N,1.2
1504912675.2,286047002.2,N,1.2
1504912695.0,286047001.7,N,1.2
1504912695.9,286047001.7,N,1.2
1504912715.7,286047002.6,N,1.2
1504912735.6,286047002.7,N,1.2
1504912755.4,286047002.5,N,1.2
1504912775.3,286047002.2,N,1.2
1504912795.1,286046999.8,N,1.2
1504912815.8,286047001.0,N,1.2
1504912835.7,286047001.0,N,1.2
1504912855.5,286047000.7,N,1.1
1504912875.4,286047000.6,N,1.1
1504912895.2,286047002.8,N,1.2
1504912915.0,286047002.7,N,1.2
1504912915.9,286047002.7,N,1.2
1504912935.8,286047000.1,N,1.2
1504912955.6,286047000.8,N,1.2
1504912975.4,286046998.1,N,1.3
1504912995.3,286047000.9,N,1.3
1504913015.1,286047002.8,N,1.2
1504913035.9,286046999.8,N,1.2
1504913055.7,286047001.4,N,1.2
1504913075.5,286047004.2,Y,0.0
1504913095.4,286047002.4,P,0.5
1504913115.2,286047002.3,P,0.5
1504913135.1,286047002.2,P,0.4
1504913136.0,286047002.2,Y,0.0
1504913155.8,286047001.1,P,0.5
1504913175.6,286046998.9,N,1.3
1504913195.5,286046998.1,N,1.6
1504913215.3,286046999.5,N,1.5
1504913235.2,286046998.7,N,1.4
1504913255.9,286046999.3,N,1.3
1504913275.7,286046999.4,N,1.2
1504913295.6,286046998.4,N,1.2
1504913315.4,286046998.1,N,1.2
1504913335.2,286046999.9,N,1.2
1504913355.1,286047000.1,N,1.1
1504913356.0,286047000.1,N,1.1
1504913375.8,286047000.8,N,1.1
1504913395.7,286047001.2,N,1.2
1504913415.5,286046998.2,N,1.2
1504913435.3,286046998.1,N,1.2
1504913455.2,286047000.9,N,1.2
1504913475.0,286046998.2,N,1.2
1504913475.9,286046998.2,N,1.2
1504913495.8,286046998.3,N,1.2
1504913515.6,286046998.1,N,1.2
1504913535.4,286046999.0,N,1.2
1504913555.3,286046999.1,N,1.2
1504913575.1,286046999.6,N,1.1
1504913595.9,286046999.5,N,1.1
1504913615.7,286046999.0,N,1.1
1504913635.5,286042159.8,Y,0.0
1504913655.4,286047000.4,P,0.5
1504913675.2,286047000.1,N,0.5
1504913695.0,286046999.9,N,0.4
1504913696.0,286046999.9,N,0.4
1504913715.8,286047002.3,Y,0.0
1504913735.6,286047002.0,P,1.0
1504913755.5,286047002.4,N,1.1
1504913775.3,286047000.2,N,1.1
1504913795.1,286047000.5,N,1.0
1504913815.9,286047002.8,N,1.1
1504913835.7,286047002.4,N,1.1
1504913855.6,286047002.4,N,1.1
1504913875.4,286047002.5,N,1.1
1504913895.2,286047002.5,N,1.0
1504913915.1,286047002.3,N,1.0
1504913916.0,286047002.3,N,1.0
1504913935.8,286047002.7,N,1.0
1504913955.7,286047001.0,N,1.0
1504913975.5,286047000.3,N,1.0
1504913995.3,286046999.9,N,1.1
1504914015.2,286047002.6,N,1.1
1504914035.0,286047002.0,N,1.0
1504914035.9,286047002.0,N,1.0
1504914055.8,286047004.3,Y,0.0
1504914075.6,286047002.2,P,0.2
1504914095.4,286047001.9,P,0.2
1504914115.3,286047001.9,P,0.2
1504914135.1,286047004.2,Y,0.0
1504914155.9,286047000.2,P,0.9
1504914175.7,286047001.0,N,0.7
1504914195.5,286047000.7,N,0.6
1504914215.4,286047000.7,N,0.6
1504914235.2,286046998.3,Y,0.0
1504914255.1,286046999.6,P,0.7
1504914256.0,286046999.6,N,0.6
1504914275.8,286046998.5,N,0.9
1504914295.6,286046998.4,N,0.9
1504914315.5,286046999.1,N,0.8
1504914335.3,286046999.2,N,0.8
1504914355.1,286046997.0,Y,0.0
1504914375.9,286046999.3,P,0.0
1504914395.7,286046998.8,P,0.2
1504914415.6,286046998.5,P,0.3
1504914435.4,286046998.5,Y,0.0
1504914455.2,286047000.1,P,0.6
1504914475.1,286047000.9,N,0.8
1504914476.0,286047000.9,N,0.8
1504914495.8,286046999.9,N,0.7
1504914515.7,286047000.6,N,0.7
1504914535.5,286042108.4,Y,0.0
1504914555.4,286046999.0,P,0.6
1504914575.2,286046998.1,P,0.9
1504914595.0,286047000.0,N,0.8
1504914595.9,286047000.0,N,0.8
1504914615.8,286047000.4,N,0.8
1504914635.6,286047000.4,N,0.8
1504914655.4,286047000.5,N,0.8
1504914675.3,286047001.1,N,0.8
1504914695.1,286046998.5,N,0.9
1504914715.9,286046998.2,N,1.0
1504914735.7,286047000.8,N,1.0
1504914755.5,286047001.0,N,1.0
1504914775.4,286047002.6,N,1.2
1504914795.2,286046999.7,N,1.2
1504914815.0,286047002.6,N,1.3
1504914816.0,286047002.6,N,1.4
1504914835.8,286047000.4,N,1.3
1504914855.6,286047002.6,N,1.4
1504914875.5,286047002.4,N,1.4
1504914895.3,286047000.4,N,1.4
1504914915.1,286047002.3,N,1.4
1504914935.9,286047002.0,N,1.4
1504914955.7,286047000.2,N,1.4
1504914975.6,286047000.8,N,1.3
1504914995.4,286046999.9,N,1.3
1504915015.2,286046998.1,N,1.4
1504915035.1,286047001.0,N,1.4
1504915036.0,286047001.0,N,1.3
1504915055.8,286047011.9,Y,0.0
1504915075.7,286047000.6,P,0.0
1504915095.5,286046998.4,P,1.0
1504915115.3,286047001.1,N,1.0
1504915135.2,286046998.5,N,1.1
1504915155.0,286046998.5,N,1.2
1504915155.9,286046998.5,N,1.1
1504915175.7,286046998.2,N,1.1
1504915195.6,286047000.7,N,1.2
